Location: ???? ?????????
(44.3677°N, 135.2344°E)
Time: 11:35:22
(UTC+00:00)

Cosmos 2263 Rocket - Pass Details

Date: 19 May 2025
Orbit: 821 x 849 km, 71.0° (Epoch: 13 June)

Event Time Altitude Azimuth Distance (km) Brightness Sun altitude
Exits shadow 17:11:58 - 154° (SSE) 2,526 4.4 -18.6°
Reaches altitude 10° 17:12:16 10° 152° (SSE) 2,438 4.3 -18.5°
Maximum altitude 17:16:35 23° 101° (ESE) 1,695 4.0 -18.1°
Drops below altitude 10° 17:20:57 10° 51° (NE) 2,466 5.8 -17.6°
Sets 17:23:51 0° 37° (NE) 3,410 7.2 -17.3°
